Regional Weather Roundup
Issued by NWS

Home | Current Version | Previous Version | Graphics & Text | Print | Product List | Glossary On
Versions: 1 2 3 4 5 6 7 8 9 10 11 12 13 14 15 16 17 18 19 20 21 22 23 24 25 26 27 28 29 30 31 32 33 34 35 36 37 38 39 40 41 42 43 44 45 46 47 48 49 50
000
ASUS45 KCYS 181610
RWRWY

WYOMING REGIONAL WEATHER ROUNDUP
NATIONAL WEATHER SERVICE CHEYENNE WY
1000 AM MDT THU SEP 18 2014

NOTE:  "FAIR" INDICATES FEW OR NO CLOUDS BELOW 12,000 FEET
WITH NO SIGNIFICANT WEATHER AND/OR OBSTRUCTIONS TO VISIBILITY.

WYZ001-181700-
YELLOWSTONE NATIONAL PARK

CITY           SKY/WX    TMP DP  RH WIND       PRES   REMARKS
LK YELLOWSTONE   N/A     54  48  80 CALM      30.17F
W YELLOWSTONE  NOT AVBL

$$
WYZ002>013-054>058-071-098>099-181700-
NORTHERN WYOMING

CITY           SKY/WX    TMP DP  RH WIND       PRES   REMARKS
JACKSON        MOSUNNY   55  45  67 CALM      30.08S THUNDER
CODY             N/A    N/A N/A N/A MISG        N/A
GREYBULL       PTSUNNY   67  46  47 N3        29.89R
WORLAND        MOSUNNY   67  48  50 W3        29.89S
SHERIDAN       PTSUNNY   67  51  56 CALM      29.84R
BUFFALO        MOSUNNY   75  49  39 E8        29.90S
GILLETTE       MOSUNNY   78  47  33 S14       29.88F
HULETT         FAIR      72  52  49 MISG      29.90
NEWCASTLE      FAIR      66  50  55 SW3       29.93

$$
WYZ014>020-022>026-101>103-181700-
CENTRAL WYOMING

CITY           SKY/WX    TMP DP  RH WIND       PRES   REMARKS
BIG PINEY      SUNNY     56  40  55 CALM      30.14F
PINEDALE       SUNNY     61  37  41 E3        30.14F
DUBOIS         FAIR      59  41  51 CALM      30.11R
LANDER         NOT AVBL
RIVERTON       MOSUNNY   66  41  40 VRB3      30.01S
CASPER         MOSUNNY   75  38  26 SW14      30.00S
DOUGLAS        SUNNY     69  42  37 S5        29.99F

$$
WYZ021-027>030-104>119-181700-
SOUTHERN WYOMING

CITY           SKY/WX    TMP DP  RH WIND       PRES   REMARKS
EVANSTON       MOSUNNY   70  41  34 SW9       30.14R
KEMMERER       SUNNY     68  37  32 S3        30.15S
FORT BRIDGER   FAIR      69  41  36 CALM      30.16S
ROCK SPRINGS   SUNNY     64  34  32 S3        30.13S
DIXON          FAIR      64  42  44 CALM      30.17S
RAWLINS        SUNNY     64  39  39 SE6       30.15S
SARATOGA       FAIR      68  37  32 SE16      30.17S
LARAMIE        SUNNY     65  41  41 S9        30.18S
CHEYENNE       SUNNY     78  39  24 VRB5      30.10S
TORRINGTON     SUNNY     62  53  72 MISG      29.96F
PINE BLUFFS    FAIR      77  45  31 W3        30.03F

$$


USA.gov is the U.S. government's official web portal to all federal, state and local government web resources and services.